contact:dominique.lefevre@mio.osupytheas.fr, maurice.libes@osupytheas.fr, didier.mallarino@osupytheas.fr
Project:EMSO http://www.emso-fr.org/EMSO-France
Depth: 2436.0 m
Title:EMSO Ligure Ouest : Data MII capteur AQUADOPP
Date,Latitude,Longitude,X_East,Y_North,Z_Up,Amplitude_X,Amplitude_Y,Amplitude_Z,Batterie,SoundSpeed,Heading,Pitch,Roll,Pressure,TIS,Speed,Direction
, degrees North, degrees East, m.s-1, m.s-1,m.s-1, 1, 1, 1, Volt, m.s-1, degree, degree, degree, dbar, degree_C, m.s-1, degree
2023-08-07T00:04:03,42.805,6.029,0.0,-0.01,-0.016,104.0,103.0,102.0,13.4,1505.2,331.9,-0.8,1.8,2471.568,13.29,0.01,180.0
2023-08-07T00:07:03,42.805,6.029,-0.008,0.019,0.0,104.0,104.0,101.0,13.4,1505.2,347.0,-0.8,1.8,2471.527,13.29,0.02,337.2
2023-08-07T00:10:03,42.805,6.029,0.002,-0.023,-0.03,104.0,102.0,103.0,13.4,1505.2,349.3,-0.7,1.8,2471.521,13.29,0.023,175.0
2023-08-07T00:13:03,42.805,6.029,-0.002,-0.009,-0.016,106.0,103.0,102.0,13.3,1505.2,338.2,-0.8,1.8,2471.541,13.29,0.009,192.5
2023-08-07T00:16:03,42.805,6.029,-0.008,0.004,0.021,104.0,106.0,101.0,13.4,1505.2,336.6,-0.8,1.8,2471.536,13.29,0.008,296.6
2023-08-07T00:19:03,42.805,6.029,-0.018,0.0,-0.023,104.0,103.0,103.0,13.4,1505.2,340.8,-0.8,1.8,2471.489,13.29,0.018,270.0
2023-08-07T00:22:03,42.805,6.029,-0.011,0.007,-0.048,105.0,104.0,102.0,13.4,1505.2,348.2,-0.8,1.8,2471.535,13.29,0.013,302.5
2023-08-07T00:25:03,42.805,6.029,-0.009,-0.002,-0.027,105.0,103.0,102.0,13.4,1505.2,319.1,-0.8,1.8,2471.483,13.29,0.009,257.5
2023-08-07T00:28:03,42.805,6.029,-0.003,-0.009,-0.04,104.0,103.0,102.0,13.3,1505.2,340.4,-0.8,1.8,2471.492,13.29,0.009,198.4
2023-08-07T00:31:03,42.805,6.029,0.01,-0.013,-0.057,104.0,102.0,102.0,13.4,1505.2,341.1,-0.8,1.8,2471.485,13.29,0.016,142.4
2023-08-07T00:34:03,42.805,6.029,-0.018,0.008,-0.024,104.0,103.0,102.0,13.3,1505.2,332.3,-0.7,1.8,2471.479,13.29,0.019,294.0
2023-08-07T00:37:03,42.805,6.029,0.001,-0.008,-0.051,105.0,104.0,100.0,13.3,1505.2,328.2,-0.7,1.8,2471.453,13.29,0.008,172.9
2023-08-07T00:40:03,42.805,6.029,-0.004,-0.028,-0.004,104.0,103.0,102.0,13.3,1505.2,327.6,-0.8,1.8,2471.485,13.29,0.028,188.1
2023-08-07T00:43:03,42.805,6.029,-0.022,-0.027,-0.041,105.0,104.0,102.0,13.3,1505.2,336.6,-0.8,1.8,2471.488,13.29,0.034,219.2
2023-08-07T00:46:03,42.805,6.029,0.01,0.016,-0.018,104.0,103.0,103.0,13.4,1505.2,322.5,-0.7,1.8,2471.472,13.29,0.018,32.0
2023-08-07T00:49:03,42.805,6.029,-0.016,0.002,-0.006,104.0,103.0,103.0,13.4,1505.2,325.9,-0.8,1.8,2471.465,13.29,0.016,277.1
2023-08-07T00:52:03,42.805,6.029,-0.007,-0.001,-0.015,105.0,105.0,103.0,13.3,1505.2,321.1,-0.8,1.8,2471.491,13.29,0.007,261.9
2023-08-07T00:55:03,42.805,6.029,-0.002,-0.013,-0.012,104.0,103.0,103.0,13.3,1505.2,324.7,-0.8,1.8,2471.484,13.29,0.013,188.7
2023-08-07T00:58:03,42.805,6.029,-0.013,-0.013,-0.058,105.0,103.0,102.0,13.4,1505.2,330.9,-0.7,1.8,2471.469,13.29,0.018,225.0
2023-08-07T01:04:03,42.805,6.029,-0.008,0.002,-0.038,106.0,105.0,104.0,13.4,1505.2,327.4,-0.8,1.8,2471.51,13.29,0.008,284.0
2023-08-07T01:07:03,42.805,6.029,0.006,0.016,0.007,102.0,104.0,104.0,13.4,1505.2,328.0,-0.8,1.8,2471.519,13.29,0.017,20.6
2023-08-07T01:10:03,42.805,6.029,0.005,-0.002,-0.008,104.0,104.0,101.0,13.3,1505.2,330.7,-0.8,1.8,2471.472,13.29,0.005,111.8
2023-08-07T01:13:03,42.805,6.029,0.007,0.012,-0.067,104.0,102.0,101.0,13.4,1505.2,339.5,-0.8,1.8,2471.455,13.29,0.013,30.3
2023-08-07T01:16:03,42.805,6.029,0.01,0.004,-0.015,105.0,103.0,101.0,13.4,1505.2,330.6,-0.8,1.8,2471.453,13.29,0.01,68.2
2023-08-07T01:19:03,42.805,6.029,-0.003,0.0,-0.055,104.0,105.0,103.0,13.3,1505.2,339.9,-0.8,1.8,2471.477,13.29,0.003,270.0
2023-08-07T01:22:03,42.805,6.029,-0.009,-0.008,-0.03,103.0,103.0,102.0,13.4,1505.2,332.0,-0.8,1.8,2471.5,13.29,0.012,228.4
2023-08-07T01:25:03,42.805,6.029,-0.004,-0.003,-0.018,105.0,104.0,103.0,13.4,1505.2,343.8,-0.8,1.8,2471.467,13.29,0.005,233.1
2023-08-07T01:28:03,42.805,6.029,-0.004,0.032,0.014,104.0,104.0,102.0,13.4,1505.2,347.8,-0.8,1.8,2471.447,13.29,0.032,352.9
2023-08-07T01:31:03,42.805,6.029,0.008,-0.018,-0.009,104.0,104.0,103.0,13.4,1505.2,346.2,-0.8,1.8,2471.457,13.29,0.019,156.0
2023-08-07T01:34:03,42.805,6.029,0.006,-0.01,0.008,103.0,104.0,102.0,13.4,1505.2,347.9,-0.8,1.8,2471.462,13.29,0.011,149.0
2023-08-07T01:37:03,42.805,6.029,0.004,-0.015,-0.033,105.0,102.0,102.0,13.4,1505.2,322.2,-0.8,1.8,2471.42,13.29,0.015,165.1
2023-08-07T01:40:03,42.805,6.029,0.0,0.006,-0.022,103.0,103.0,102.0,13.4,1505.2,347.4,-0.8,1.8,2471.462,13.29,0.006,0.0
2023-08-07T01:43:03,42.805,6.029,0.002,-0.023,-0.057,104.0,103.0,102.0,13.4,1505.2,331.3,-0.8,1.8,2471.431,13.29,0.023,175.0
2023-08-07T01:46:03,42.805,6.029,-0.004,0.017,-0.053,104.0,103.0,101.0,13.4,1505.2,345.9,-0.8,1.8,2471.432,13.29,0.017,346.8
2023-08-07T01:49:03,42.805,6.029,-0.005,-0.028,-0.033,104.0,104.0,102.0,13.3,1505.2,351.7,-0.8,1.8,2471.453,13.29,0.028,190.1
2023-08-07T01:52:03,42.805,6.029,-0.007,0.001,-0.029,103.0,104.0,101.0,13.3,1505.2,329.2,-0.8,1.8,2471.415,13.29,0.007,278.1
2023-08-07T01:55:03,42.805,6.029,-0.007,0.0,-0.025,105.0,103.0,102.0,13.4,1505.2,318.5,-0.8,1.8,2471.413,13.29,0.007,270.0
2023-08-07T01:58:03,42.805,6.029,0.01,0.004,-0.017,104.0,104.0,101.0,13.3,1505.2,348.6,-0.7,1.8,2471.447,13.29,0.01,68.2
2023-08-07T02:04:03,42.805,6.029,0.001,-0.012,-0.03,102.0,104.0,102.0,13.3,1505.2,325.4,-0.8,1.8,2471.483,13.29,0.012,175.2
2023-08-07T02:07:03,42.805,6.029,-0.02,0.016,-0.007,104.0,103.0,102.0,13.4,1505.2,331.2,-0.8,1.8,2471.463,13.29,0.025,308.7
2023-08-07T02:10:03,42.805,6.029,-0.006,-0.005,-0.049,104.0,102.0,102.0,13.4,1505.2,337.4,-0.8,1.8,2471.458,13.29,0.007,230.2
2023-08-07T02:13:03,42.805,6.029,-0.001,0.0,-0.01,103.0,103.0,103.0,13.4,1505.2,329.3,-0.8,1.8,2471.424,13.29,0.001,270.0
2023-08-07T02:16:03,42.805,6.029,0.005,0.003,-0.045,104.0,104.0,101.0,13.4,1505.2,349.1,-0.8,1.7,2471.459,13.29,0.005,59.0
2023-08-07T02:19:03,42.805,6.029,-0.016,0.008,-0.016,102.0,103.0,102.0,13.4,1505.2,319.6,-0.8,1.8,2471.425,13.29,0.017,296.6
2023-08-07T02:22:03,42.805,6.029,0.012,-0.007,-0.003,104.0,103.0,102.0,13.4,1505.2,338.5,-0.8,1.8,2471.444,13.29,0.013,120.3
2023-08-07T02:25:03,42.805,6.029,0.006,-0.013,-0.043,103.0,102.0,102.0,13.4,1505.2,349.1,-0.7,1.8,2471.402,13.29,0.014,155.2
2023-08-07T02:28:03,42.805,6.029,-0.022,-0.006,-0.029,104.0,104.0,101.0,13.3,1505.2,329.4,-0.7,1.8,2471.445,13.29,0.022,254.7
2023-08-07T02:31:03,42.805,6.029,-0.002,0.002,-0.013,103.0,105.0,101.0,13.4,1505.2,341.9,-0.8,1.8,2471.403,13.29,0.002,315.0
2023-08-07T02:34:03,42.805,6.029,0.0,0.009,-0.007,103.0,104.0,101.0,13.4,1505.2,337.5,-0.7,1.8,2471.404,13.29,0.009,0.0
2023-08-07T02:37:03,42.805,6.029,0.006,-0.015,-0.039,103.0,104.0,101.0,13.4,1505.2,343.4,-0.8,1.8,2471.463,13.29,0.016,158.2
2023-08-07T02:40:03,42.805,6.029,-0.002,0.0,-0.044,103.0,103.0,102.0,13.3,1505.2,336.6,-0.7,1.8,2471.421,13.29,0.002,270.0
2023-08-07T02:43:03,42.805,6.029,0.0,0.007,-0.033,105.0,102.0,101.0,13.3,1505.2,346.5,-0.7,1.8,2471.42,13.29,0.007,0.0
2023-08-07T02:46:03,42.805,6.029,-0.023,-0.007,-0.06,103.0,104.0,102.0,13.3,1505.2,344.7,-0.7,1.8,2471.436,13.29,0.024,253.1
2023-08-07T02:49:03,42.805,6.029,-0.003,0.016,-0.025,105.0,103.0,101.0,13.4,1505.2,320.5,-0.7,1.8,2471.385,13.29,0.016,349.4
2023-08-07T02:52:03,42.805,6.029,0.008,0.004,-0.033,104.0,104.0,102.0,13.4,1505.2,337.6,-0.7,1.8,2471.401,13.29,0.008,63.4
2023-08-07T02:55:03,42.805,6.029,-0.005,-0.007,-0.035,103.0,104.0,102.0,13.3,1505.2,330.7,-0.8,1.8,2471.408,13.29,0.008,215.5
2023-08-07T02:58:03,42.805,6.029,0.009,-0.001,-0.023,104.0,103.0,101.0,13.3,1505.2,349.3,-0.8,1.8,2471.415,13.29,0.009,96.3
2023-08-07T03:04:03,42.805,6.029,0.011,-0.028,-0.035,102.0,105.0,102.0,13.4,1505.2,331.3,-0.8,1.8,2471.454,13.29,0.03,158.6
2023-08-07T03:07:03,42.805,6.029,-0.004,0.008,-0.056,105.0,104.0,102.0,13.4,1505.2,342.6,-0.8,1.8,2471.424,13.29,0.008,333.4
2023-08-07T03:10:03,42.805,6.029,-0.016,0.0,-0.035,103.0,104.0,102.0,13.4,1505.2,340.4,-0.8,1.8,2471.414,13.29,0.016,270.0
2023-08-07T03:13:03,42.805,6.029,-0.013,-0.027,-0.03,104.0,103.0,103.0,13.3,1505.2,343.4,-0.7,1.8,2471.393,13.29,0.029,205.7
2023-08-07T03:16:03,42.805,6.029,0.023,-0.007,-0.007,102.0,106.0,103.0,13.3,1505.2,333.4,-0.8,1.8,2471.448,13.29,0.024,106.9
2023-08-07T03:19:03,42.805,6.029,0.012,-0.012,-0.036,103.0,104.0,103.0,13.3,1505.2,322.3,-0.8,1.8,2471.414,13.29,0.016,135.0
2023-08-07T03:22:03,42.805,6.029,0.012,-0.004,-0.022,104.0,103.0,102.0,13.4,1505.2,334.2,-0.8,1.8,2471.374,13.29,0.012,108.4
2023-08-07T03:25:03,42.805,6.029,0.0,0.022,-0.031,102.0,105.0,103.0,13.4,1505.2,351.5,-0.8,1.8,2471.403,13.29,0.022,0.0
2023-08-07T03:28:03,42.805,6.029,0.002,0.013,-0.043,103.0,103.0,103.0,13.4,1505.2,334.4,-0.7,1.8,2471.398,13.29,0.013,8.7
2023-08-07T03:31:03,42.805,6.029,-0.005,-0.01,-0.054,104.0,104.0,102.0,13.3,1505.2,347.1,-0.8,1.8,2471.412,13.29,0.011,206.6
2023-08-07T03:34:03,42.805,6.029,0.01,0.009,-0.029,105.0,104.0,102.0,13.3,1505.2,337.7,-0.7,1.8,2471.376,13.29,0.013,48.0
2023-08-07T03:37:03,42.805,6.029,-0.034,-0.012,-0.022,105.0,103.0,103.0,13.4,1505.2,345.9,-0.8,1.8,2471.371,13.29,0.036,250.6
2023-08-07T03:40:03,42.805,6.029,-0.011,-0.006,-0.054,103.0,103.0,101.0,13.4,1505.2,323.8,-0.8,1.8,2471.389,13.29,0.012,241.4
2023-08-07T03:43:03,42.805,6.029,0.0,0.0,-0.002,104.0,103.0,102.0,13.4,1505.2,330.1,-0.8,1.8,2471.384,13.29,0.0,0.0
2023-08-07T03:46:03,42.805,6.029,-0.006,0.006,-0.019,104.0,104.0,102.0,13.4,1505.2,340.4,-0.8,1.8,2471.391,13.29,0.008,315.0
2023-08-07T03:49:03,42.805,6.029,0.012,-0.007,-0.019,104.0,104.0,102.0,13.4,1505.2,335.1,-0.8,1.8,2471.365,13.29,0.013,120.3
2023-08-07T03:52:03,42.805,6.029,0.002,0.014,-0.015,104.0,105.0,101.0,13.4,1505.2,339.4,-0.7,1.8,2471.357,13.29,0.014,8.1
2023-08-07T03:55:03,42.805,6.029,-0.02,0.008,0.0,104.0,104.0,104.0,13.3,1505.2,340.8,-0.8,1.8,2471.314,13.29,0.021,291.8
2023-08-07T03:58:03,42.805,6.029,0.016,-0.016,-0.024,103.0,105.0,102.0,13.4,1505.2,342.9,-0.8,1.8,2471.364,13.29,0.022,135.0
2023-08-07T04:04:03,42.805,6.029,-0.005,0.006,-0.009,104.0,103.0,103.0,13.4,1505.2,326.5,-0.8,1.8,2471.415,13.29,0.007,320.2
2023-08-07T04:07:03,42.805,6.029,-0.001,-0.019,-0.058,104.0,103.0,102.0,13.3,1505.2,330.3,-0.8,1.8,2471.37,13.29,0.019,183.0
2023-08-07T04:10:03,42.805,6.029,-0.006,-0.012,-0.028,104.0,104.0,102.0,13.4,1505.2,327.7,-0.8,1.8,2471.416,13.29,0.013,206.6
2023-08-07T04:13:03,42.805,6.029,0.006,-0.009,-0.002,103.0,104.0,102.0,13.4,1505.2,347.4,-0.7,1.8,2471.399,13.29,0.01,146.3
2023-08-07T04:16:03,42.805,6.029,0.001,0.0,-0.058,105.0,103.0,102.0,13.4,1505.2,339.5,-0.8,1.8,2471.366,13.29,0.001,90.0
2023-08-07T04:19:03,42.805,6.029,-0.003,0.005,-0.021,104.0,104.0,105.0,13.4,1505.2,321.1,-0.8,1.8,2471.404,13.29,0.005,329.0
2023-08-07T04:22:03,42.805,6.029,0.014,0.012,-0.037,103.0,104.0,102.0,13.3,1505.2,341.1,-0.8,1.8,2471.366,13.29,0.018,49.4
2023-08-07T04:25:03,42.805,6.029,0.008,-0.005,-0.002,104.0,104.0,102.0,13.4,1505.2,343.4,-0.8,1.8,2471.357,13.29,0.009,122.0
2023-08-07T04:28:03,42.805,6.029,-0.024,0.005,-0.041,106.0,105.0,101.0,13.3,1505.2,340.4,-0.7,1.8,2471.382,13.29,0.024,281.8
2023-08-07T04:31:03,42.805,6.029,-0.006,0.003,-0.023,105.0,104.0,101.0,13.4,1505.2,336.6,-0.8,1.8,2471.364,13.29,0.006,296.6
2023-08-07T04:34:03,42.805,6.029,-0.001,-0.001,-0.034,104.0,105.0,102.0,13.4,1505.2,333.4,-0.7,1.8,2471.35,13.29,0.001,225.0
2023-08-07T04:37:03,42.805,6.029,0.003,0.026,-0.028,103.0,104.0,103.0,13.3,1505.2,327.1,-0.8,1.8,2471.325,13.29,0.026,6.6
2023-08-07T04:40:03,42.805,6.029,-0.02,-0.016,-0.036,104.0,104.0,103.0,13.4,1505.2,322.0,-0.8,1.8,2471.358,13.29,0.025,231.3
2023-08-07T04:43:03,42.805,6.029,-0.01,-0.01,-0.038,103.0,104.0,102.0,13.4,1505.2,334.5,-0.7,1.8,2471.372,13.29,0.014,225.0
2023-08-07T04:46:03,42.805,6.029,0.006,0.011,-0.031,104.0,104.0,101.0,13.4,1505.2,341.5,-0.8,1.8,2471.346,13.29,0.012,28.6
2023-08-07T04:49:03,42.805,6.029,0.003,0.0,-0.018,104.0,103.0,102.0,13.4,1505.2,330.2,-0.7,1.8,2471.34,13.29,0.003,90.0
2023-08-07T04:52:03,42.805,6.029,-0.003,-0.007,-0.008,104.0,104.0,102.0,13.4,1505.2,342.3,-0.8,1.8,2471.322,13.29,0.007,203.2
2023-08-07T04:55:03,42.805,6.029,0.02,0.001,-0.002,104.0,103.0,102.0,13.3,1505.2,320.0,-0.8,1.8,2471.354,13.29,0.02,87.1
2023-08-07T04:58:03,42.805,6.029,-0.001,0.0,-0.006,104.0,104.0,102.0,13.4,1505.2,333.9,-0.8,1.8,2471.326,13.29,0.001,270.0
2023-08-07T05:04:03,42.805,6.029,0.021,0.013,0.006,104.0,103.0,101.0,13.4,1505.2,321.6,-0.7,1.8,2471.391,13.29,0.024,58.2
2023-08-07T05:07:03,42.805,6.029,0.017,-0.031,-0.04,103.0,104.0,102.0,13.4,1505.2,326.3,-0.8,1.8,2471.416,13.29,0.035,151.3
2023-08-07T05:10:03,42.805,6.029,-0.014,0.012,-0.004,104.0,104.0,101.0,13.4,1505.2,327.5,-0.7,1.8,2471.386,13.29,0.018,310.6
2023-08-07T05:13:03,42.805,6.029,0.0,0.028,-0.015,104.0,104.0,103.0,13.4,1505.2,327.8,-0.8,1.8,2471.361,13.29,0.028,0.0
2023-08-07T05:16:03,42.805,6.029,0.001,-0.006,-0.026,103.0,102.0,103.0,13.4,1505.2,330.7,-0.8,1.8,2471.368,13.29,0.006,170.5
2023-08-07T05:19:03,42.805,6.029,0.0,-0.004,-0.03,104.0,105.0,102.0,13.3,1505.2,344.7,-0.8,1.8,2471.34,13.29,0.004,180.0
2023-08-07T05:22:03,42.805,6.029,0.0,0.006,-0.075,105.0,104.0,102.0,13.3,1505.2,326.3,-0.8,1.8,2471.33,13.29,0.006,0.0
2023-08-07T05:25:03,42.805,6.029,-0.004,0.017,-0.012,105.0,104.0,102.0,13.3,1505.2,333.9,-0.8,1.8,2471.35,13.29,0.017,346.8
2023-08-07T05:28:03,42.805,6.029,-0.008,-0.003,-0.054,104.0,102.0,103.0,13.3,1505.2,325.3,-0.8,1.8,2471.36,13.29,0.008,249.4
2023-08-07T05:31:03,42.805,6.029,-0.005,0.008,-0.025,104.0,105.0,102.0,13.3,1505.2,336.3,-0.7,1.8,2471.366,13.29,0.009,328.0
2023-08-07T05:34:03,42.805,6.029,-0.012,0.0,-0.025,104.0,103.0,102.0,13.4,1505.2,333.0,-0.8,1.8,2471.331,13.29,0.012,270.0
2023-08-07T05:37:03,42.805,6.029,-0.008,-0.013,-0.057,104.0,105.0,102.0,13.4,1505.2,333.9,-0.8,1.8,2471.356,13.29,0.015,211.6
2023-08-07T05:40:03,42.805,6.029,0.005,-0.006,-0.038,104.0,104.0,103.0,13.4,1505.2,337.9,-0.8,1.8,2471.272,13.29,0.007,140.2
2023-08-07T05:43:03,42.805,6.029,0.0,-0.027,-0.058,104.0,104.0,102.0,13.4,1505.2,334.4,-0.8,1.8,2471.332,13.29,0.026,180.0
2023-08-07T05:46:03,42.805,6.029,0.011,-0.006,-0.028,104.0,103.0,102.0,13.4,1505.2,333.0,-0.8,1.8,2471.361,13.29,0.012,118.6
2023-08-07T05:49:03,42.805,6.029,-0.004,0.008,-0.026,104.0,103.0,101.0,13.3,1505.2,335.2,-0.8,1.8,2471.366,13.29,0.008,333.4
2023-08-07T05:52:03,42.805,6.029,-0.015,0.02,-0.004,104.0,103.0,103.0,13.4,1505.2,327.5,-0.8,1.8,2471.293,13.29,0.025,323.1
2023-08-07T05:55:03,42.805,6.029,-0.008,-0.015,-0.03,104.0,103.0,103.0,13.4,1505.2,332.9,-0.8,1.8,2471.342,13.29,0.017,208.1
2023-08-07T05:58:03,42.805,6.029,0.003,0.009,-0.014,104.0,103.0,103.0,13.3,1505.2,350.5,-0.8,1.8,2471.369,13.29,0.009,18.4
2023-08-07T06:04:03,42.805,6.029,-0.017,0.005,0.005,104.0,104.0,105.0,13.4,1505.2,344.3,-0.8,1.8,2471.375,13.29,0.017,286.4
2023-08-07T06:07:03,42.805,6.029,0.011,0.007,-0.008,105.0,103.0,103.0,13.3,1505.2,334.2,-0.7,1.8,2471.368,13.29,0.013,57.5
2023-08-07T06:10:03,42.805,6.029,-0.005,0.007,-0.038,103.0,103.0,103.0,13.4,1505.2,343.4,-0.8,1.8,2471.355,13.29,0.008,324.5
2023-08-07T06:13:03,42.805,6.029,0.006,0.015,0.015,104.0,105.0,101.0,13.4,1505.2,343.5,-0.8,1.8,2471.417,13.3,0.016,21.8
2023-08-07T06:16:03,42.805,6.029,-0.024,0.01,-0.026,103.0,103.0,101.0,13.3,1505.2,341.5,-0.7,1.8,2471.376,13.3,0.026,292.6
2023-08-07T06:19:03,42.805,6.029,0.001,0.015,-0.026,105.0,103.0,103.0,13.4,1505.2,328.6,-0.8,1.8,2471.346,13.3,0.015,3.8
2023-08-07T06:22:03,42.805,6.029,-0.002,-0.01,-0.044,103.0,102.0,103.0,13.4,1505.2,318.9,-0.7,1.9,2471.335,13.3,0.01,191.3
2023-08-07T06:25:03,42.805,6.029,-0.024,0.005,-0.026,103.0,105.0,103.0,13.3,1505.2,327.1,-0.8,1.8,2471.316,13.3,0.024,281.8
2023-08-07T06:28:03,42.805,6.029,0.011,0.014,0.006,104.0,103.0,102.0,13.4,1505.2,323.4,-0.7,1.8,2471.324,13.3,0.017,38.2
2023-08-07T06:31:03,42.805,6.029,0.006,-0.012,0.0,103.0,103.0,102.0,13.3,1505.2,334.5,-0.8,1.9,2471.302,13.3,0.013,153.4
2023-08-07T06:34:03,42.805,6.029,-0.02,0.01,-0.016,103.0,104.0,102.0,13.4,1505.2,329.1,-0.7,1.8,2471.341,13.29,0.022,296.6
2023-08-07T06:37:03,42.805,6.029,-0.002,0.005,0.01,103.0,102.0,102.0,13.4,1505.2,323.6,-0.8,1.8,2471.307,13.29,0.005,338.2
2023-08-07T06:40:03,42.805,6.029,-0.005,0.009,0.001,105.0,104.0,101.0,13.4,1505.2,340.0,-0.8,1.8,2471.308,13.29,0.01,330.9
2023-08-07T06:43:03,42.805,6.029,-0.012,0.01,-0.044,104.0,103.0,102.0,13.4,1505.2,340.4,-0.8,1.8,2471.294,13.29,0.015,309.8
2023-08-07T06:46:03,42.805,6.029,-0.008,0.005,-0.026,105.0,103.0,102.0,13.4,1505.2,336.5,-0.8,1.8,2471.327,13.29,0.009,302.0
2023-08-07T06:49:03,42.805,6.029,-0.002,-0.003,0.007,103.0,102.0,103.0,13.3,1505.2,328.2,-0.7,1.8,2471.331,13.29,0.003,213.7
2023-08-07T06:52:03,42.805,6.029,-0.002,0.009,-0.009,104.0,103.0,103.0,13.3,1505.2,347.4,-0.8,1.8,2471.315,13.29,0.009,347.5
2023-08-07T06:55:03,42.805,6.029,0.003,-0.007,-0.018,104.0,103.0,102.0,13.4,1505.2,349.1,-0.8,1.8,2471.335,13.29,0.007,156.8
2023-08-07T06:58:03,42.805,6.029,-0.028,0.0,-0.01,103.0,104.0,103.0,13.3,1505.2,333.9,-0.8,1.8,2471.338,13.29,0.028,270.0
2023-08-07T07:04:03,42.805,6.029,-0.003,-0.004,-0.042,104.0,104.0,102.0,13.4,1505.2,322.1,-0.8,1.8,2471.355,13.29,0.005,216.9
2023-08-07T07:07:03,42.805,6.029,0.008,0.006,-0.024,104.0,103.0,102.0,13.3,1505.2,327.6,-0.8,1.8,2471.37,13.29,0.01,53.1
2023-08-07T07:10:03,42.805,6.029,-0.002,0.006,-0.014,104.0,103.0,102.0,13.4,1505.2,339.3,-0.8,1.8,2471.365,13.29,0.006,341.6
2023-08-07T07:13:03,42.805,6.029,-0.011,0.007,-0.003,104.0,104.0,102.0,13.4,1505.2,329.3,-0.8,1.8,2471.357,13.29,0.013,302.5
2023-08-07T07:16:03,42.805,6.029,-0.012,0.019,-0.018,105.0,104.0,102.0,13.4,1505.2,326.3,-0.8,1.8,2471.361,13.29,0.022,327.7
2023-08-07T07:19:03,42.805,6.029,-0.024,0.011,-0.013,104.0,104.0,102.0,13.3,1505.2,330.2,-0.8,1.8,2471.376,13.29,0.026,294.6
2023-08-07T07:22:03,42.805,6.029,0.003,0.008,-0.022,102.0,104.0,102.0,13.4,1505.2,331.8,-0.7,1.8,2471.363,13.29,0.008,20.6
2023-08-07T07:25:03,42.805,6.029,-0.014,0.01,-0.014,103.0,102.0,103.0,13.3,1505.2,328.4,-0.7,1.8,2471.351,13.29,0.017,305.5
2023-08-07T07:28:03,42.805,6.029,0.007,-0.004,-0.027,104.0,105.0,102.0,13.4,1505.2,323.4,-0.8,1.8,2471.371,13.29,0.008,119.7
2023-08-07T07:31:03,42.805,6.029,-0.012,0.0,-0.039,104.0,104.0,101.0,13.3,1505.2,337.2,-0.7,1.8,2471.367,13.29,0.012,270.0
2023-08-07T07:34:03,42.805,6.029,-0.006,0.001,0.011,104.0,104.0,102.0,13.4,1505.2,336.1,-0.7,1.8,2471.38,13.29,0.006,279.5
2023-08-07T07:37:03,42.805,6.029,-0.009,0.006,-0.004,104.0,103.0,103.0,13.4,1505.2,323.9,-0.7,1.8,2471.345,13.29,0.01,303.7
2023-08-07T07:40:03,42.805,6.029,0.002,0.007,-0.037,103.0,104.0,102.0,13.3,1505.2,338.6,-0.8,1.8,2471.356,13.29,0.007,15.9
2023-08-07T07:43:03,42.805,6.029,-0.019,0.002,-0.02,104.0,104.0,103.0,13.3,1505.2,332.8,-0.8,1.9,2471.366,13.29,0.019,276.0
2023-08-07T07:46:03,42.805,6.029,-0.021,0.025,-0.026,104.0,103.0,102.0,13.3,1505.2,348.6,-0.8,1.8,2471.351,13.29,0.032,320.0
2023-08-07T07:49:03,42.805,6.029,-0.002,0.009,-0.053,104.0,103.0,102.0,13.4,1505.2,321.3,-0.8,1.8,2471.392,13.29,0.009,347.5
2023-08-07T07:52:03,42.805,6.029,0.013,0.009,-0.008,104.0,103.0,102.0,13.4,1505.2,342.6,-0.7,1.8,2471.37,13.29,0.015,55.3
2023-08-07T07:55:03,42.805,6.029,0.0,-0.01,-0.03,105.0,104.0,102.0,13.3,1505.2,328.5,-0.7,1.8,2471.387,13.29,0.01,180.0
2023-08-07T07:58:03,42.805,6.029,-0.015,-0.01,-0.029,103.0,103.0,103.0,13.4,1505.2,330.8,-0.7,1.8,2471.372,13.29,0.018,236.3
2023-08-07T08:04:03,42.805,6.029,-0.01,0.004,-0.011,105.0,102.0,102.0,13.3,1505.2,340.7,-0.8,1.8,2471.406,13.29,0.01,291.8
2023-08-07T08:07:03,42.805,6.029,-0.015,0.015,-0.042,104.0,103.0,102.0,13.3,1505.2,332.5,-0.7,1.8,2471.416,13.29,0.021,315.0
2023-08-07T08:10:03,42.805,6.029,-0.029,0.022,-0.022,104.0,104.0,102.0,13.4,1505.2,334.4,-0.8,1.8,2471.46,13.29,0.036,307.2
2023-08-07T08:13:03,42.805,6.029,0.014,0.006,-0.009,105.0,104.0,103.0,13.4,1505.2,337.8,-0.8,1.8,2471.406,13.29,0.015,66.8
2023-08-07T08:16:03,42.805,6.029,-0.015,0.009,0.014,105.0,104.0,102.0,13.3,1505.2,319.7,-0.8,1.8,2471.406,13.29,0.017,301.0
2023-08-07T08:19:03,42.805,6.029,-0.008,0.019,-0.008,104.0,104.0,102.0,13.4,1505.2,340.7,-0.8,1.9,2471.402,13.29,0.02,337.2
2023-08-07T08:22:03,42.805,6.029,-0.014,0.014,-0.015,104.0,104.0,104.0,13.3,1505.2,322.2,-0.8,1.8,2471.378,13.29,0.019,315.0
2023-08-07T08:25:03,42.805,6.029,-0.002,-0.003,-0.014,105.0,104.0,102.0,13.3,1505.2,325.4,-0.8,1.8,2471.414,13.29,0.003,213.7
2023-08-07T08:28:03,42.805,6.029,-0.01,0.008,-0.032,104.0,103.0,102.0,13.4,1505.2,337.9,-0.7,1.8,2471.408,13.29,0.012,308.7
2023-08-07T08:31:03,42.805,6.029,0.0,0.011,-0.009,103.0,103.0,102.0,13.4,1505.2,336.3,-0.8,1.8,2471.375,13.29,0.011,0.0
2023-08-07T08:34:03,42.805,6.029,-0.022,0.013,0.001,103.0,104.0,103.0,13.4,1505.2,321.0,-0.8,1.8,2471.391,13.29,0.025,300.6
2023-08-07T08:37:03,42.805,6.029,-0.013,0.014,-0.003,103.0,105.0,101.0,13.4,1505.2,329.7,-0.8,1.8,2471.412,13.29,0.019,317.1
2023-08-07T08:40:03,42.805,6.029,-0.007,-0.002,-0.029,103.0,105.0,102.0,13.4,1505.2,345.1,-0.8,1.8,2471.403,13.29,0.007,254.1
2023-08-07T08:43:03,42.805,6.029,-0.009,-0.007,-0.018,104.0,104.0,102.0,13.3,1505.2,317.7,-0.8,1.8,2471.446,13.29,0.011,232.1
2023-08-07T08:46:03,42.805,6.029,-0.006,0.002,-0.042,107.0,103.0,102.0,13.3,1505.2,342.3,-0.8,1.8,2471.38,13.3,0.006,288.4
2023-08-07T08:49:03,42.805,6.029,0.009,-0.003,-0.025,105.0,104.0,104.0,13.3,1505.2,337.2,-0.8,1.8,2471.413,13.29,0.009,108.4
2023-08-07T08:52:03,42.805,6.029,0.002,0.0,-0.014,104.0,103.0,104.0,13.3,1505.2,341.1,-0.7,1.8,2471.429,13.29,0.002,90.0
2023-08-07T08:55:03,42.805,6.029,-0.008,-0.003,-0.017,104.0,105.0,102.0,13.4,1505.2,336.8,-0.7,1.8,2471.407,13.3,0.008,249.4
2023-08-07T08:58:03,42.805,6.029,-0.004,-0.002,-0.009,104.0,104.0,103.0,13.3,1505.2,329.0,-0.8,1.8,2471.431,13.3,0.004,243.4
2023-08-07T09:04:03,42.805,6.029,-0.003,0.017,-0.023,104.0,103.0,103.0,13.4,1505.2,336.1,-0.8,1.8,2471.443,13.29,0.017,350.0
2023-08-07T09:07:03,42.805,6.029,0.009,-0.005,-0.026,104.0,118.0,102.0,13.4,1505.2,348.6,-0.7,1.8,2471.484,13.3,0.01,119.1
2023-08-07T09:10:03,42.805,6.029,0.021,0.006,0.002,102.0,104.0,102.0,13.4,1505.2,322.2,-0.8,1.8,2471.43,13.3,0.021,74.1
2023-08-07T09:13:03,42.805,6.029,0.0,-0.013,-0.042,105.0,104.0,104.0,13.3,1505.2,332.8,-0.8,1.8,2471.46,13.29,0.013,180.0
2023-08-07T09:16:03,42.805,6.029,0.001,-0.007,-0.008,104.0,102.0,102.0,13.3,1505.2,326.6,-0.8,1.8,2471.432,13.3,0.007,171.9
2023-08-07T09:19:03,42.805,6.029,-0.008,0.017,-0.002,105.0,104.0,102.0,13.4,1505.2,341.9,-0.8,1.8,2471.409,13.3,0.018,334.8
2023-08-07T09:22:03,42.805,6.029,-0.03,0.003,-0.023,108.0,103.0,108.0,13.4,1505.2,332.1,-0.8,1.8,2471.476,13.3,0.03,275.7
2023-08-07T09:25:03,42.805,6.029,0.001,-0.005,-0.008,104.0,104.0,102.0,13.4,1505.2,341.1,-0.8,1.8,2471.442,13.3,0.005,168.7
2023-08-07T09:28:03,42.805,6.029,-0.009,0.0,-0.046,105.0,105.0,102.0,13.3,1505.2,350.9,-0.8,1.8,2471.405,13.3,0.009,270.0
2023-08-07T09:31:03,42.805,6.029,-0.007,0.01,0.007,104.0,103.0,102.0,13.4,1505.2,339.0,-0.7,1.8,2471.425,13.3,0.012,325.0
2023-08-07T09:34:03,42.805,6.029,0.003,-0.005,-0.008,103.0,103.0,101.0,13.4,1505.2,336.5,-0.8,1.8,2471.442,13.3,0.005,149.0
2023-08-07T09:37:03,42.805,6.029,0.008,0.013,-0.026,105.0,103.0,103.0,13.4,1505.2,326.3,-0.7,1.8,2471.431,13.3,0.015,31.6
2023-08-07T09:40:03,42.805,6.029,-0.004,0.003,0.009,104.0,106.0,101.0,13.4,1505.2,331.1,-0.8,1.8,2471.452,13.3,0.005,306.9
2023-08-07T09:43:03,42.805,6.029,-0.005,-0.014,-0.043,106.0,103.0,102.0,13.3,1505.2,348.2,-0.8,1.8,2471.39,13.3,0.014,199.6
2023-08-07T09:46:03,42.805,6.029,0.006,-0.003,-0.031,104.0,104.0,102.0,13.3,1505.2,319.2,-0.8,1.8,2471.425,13.3,0.006,116.6
2023-08-07T09:49:03,42.805,6.029,0.016,0.009,-0.013,103.0,103.0,105.0,13.4,1505.2,322.2,-0.8,1.8,2471.418,13.3,0.018,60.6
2023-08-07T09:52:03,42.805,6.029,0.001,-0.009,-0.003,104.0,104.0,101.0,13.4,1505.2,339.3,-0.8,1.8,2471.444,13.3,0.009,173.7
2023-08-07T09:55:03,42.805,6.029,-0.004,0.017,0.004,104.0,102.0,103.0,13.3,1505.2,323.5,-0.7,1.8,2471.447,13.3,0.017,346.8